MMS 2

Last updated on Sat Nov 01 2025 00:02:39 GMT+0000 (Coordinated Universal Time)

1 40483U 15011B 25304.66668980 -.00000307 00000+0 00000+0 0 9999 2 40483 68.4675 352.2628 8567920 162.4949 30.2604 0.28300674 1384
UTC large
Height (km)
Speed (km/s)
/
Latitude / Longitude
Inclination (degrees)
Orbital Period (minutes)
Azimuth
Elevation
Range (km)
Doppler Factor

Next 0 passes for location: London (51.5072 / 0.1276)

Sorry there are no passes over London.